RASAT

Last updated on Sat Apr 13 2024 01:02:24 GMT+0100 (British Summer Time)

1 37791U 11044D 24103.54705490 .00000863 00000+0 16533-3 0 9998 2 37791 98.0754 196.0745 0021308 188.0570 297.4112 14.66161257676506
UTC large
Height (km)
Speed (km/s)
/
Latitude / Longitude
Inclination (degrees)
Orbital Period (minutes)
Azimuth
Elevation
Range (km)
Doppler Factor

Next 0 passes for location: London (51.5072 / 0.1276)

Sorry there are no passes over London.